DW3458 Weather Reports


Display with metric or nautical units.
time (UTC)temp
F
wind
direction
speed
MPH
gust
MPH
rain 1hr
in
rain 24hr
in
rain mn
in
humidity
%
barometer
mb
20210730050357 80 194 0.0 0.0 0.00 0.00 0.00 94 1015.3
20210730045852 80 195 0.0 0.0 0.00 0.00 0.00 94 1015.3
20210730045339 80 195 0.0 1.0 0.00 0.00 0.00 95 1015.5
20210730044839 80 195 0.0 2.0 0.00 0.00 0.00 95 1015.8
20210730044334 80 194 0.0 2.0 0.00 0.00 0.00 95 1015.7
20210730043833 80 188 1.0 1.0 0.00 0.00 0.00 95 1015.6
20210730043332 80 188 1.0 2.0 0.00 0.00 0.00 95 1015.7
20210730042835 80 188 0.0 2.0 0.00 0.00 0.00 94 1015.5
20210730042333 80 188 0.0 0.0 0.00 0.00 0.00 94 1015.4
20210730041835 80 188 0.0 0.0 0.00 0.00 0.00 94 1015.3
20210730041332 80 188 0.0 0.0 0.00 0.00 0.00 94 1015.3
20210730040827 80 188 0.0 1.0 0.00 0.00 0.00 94 1014.9
20210730040321 80 188 0.0 1.0 0.00 0.00 0.00 94 1014.9
20210730035814 80 188 0.0 1.0 0.00 0.00 0.00 94 1014.9
20210730035314 80 188 0.0 1.0 0.00 0.00 0.00 94 1014.8
20210730034814 81 188 0.0 0.0 0.00 0.00 0.00 94 1014.8
20210730034314 81 188 0.0 0.0 0.00 0.00 0.00 94 1014.4
20210730033805 81 188 0.0 1.0 0.00 0.00 0.00 94 1014.3
20210730033303 81 188 0.0 1.0 0.00 0.00 0.00 94 1014.2
20210730032802 81 188 0.0 1.0 0.00 0.00 0.00 94 1014.2
20210730032305 81 188 0.0 1.0 0.00 0.00 0.00 94 1014.1
20210730031803 81 188 0.0 0.0 0.00 0.00 0.00 94 1014.1
20210730031304 81 188 0.0 1.0 0.00 0.00 0.00 94 1014.2
20210730030803 81 188 0.0 1.0 0.00 0.00 0.00 94 1014.2
20210730030304 82 188 0.0 1.0 0.00 0.00 0.00 93 1014.2
20210730025803 82 188 0.0 0.0 0.00 0.00 0.00 93 1014.1
20210730025305 82 188 0.0 0.0 0.00 0.00 0.00 93 1014.0
20210730024802 82 188 0.0 0.0 0.00 0.00 0.00 93 1014.0
20210730024303 82 188 0.0 0.0 0.00 0.00 0.00 93 1013.8
20210730023804 82 188 0.0 0.0 0.00 0.00 0.00 93 1013.8
20210730023300 82 188 0.0 0.0 0.00 0.00 0.00 93 1013.7
20210730022757 82 188 0.0 0.0 0.00 0.00 0.00 93 1013.5
20210730022254 82 188 0.0 0.0 0.00 0.00 0.00 92 1013.2
20210730021743 82 188 0.0 0.0 0.00 0.00 0.00 92 1013.2
20210730021232 82 188 0.0 0.0 0.00 0.00 0.00 92 1013.1
20210730020730 83 188 0.0 0.0 0.00 0.00 0.00 92 1012.9
20210730020230 83 188 0.0 0.0 0.00 0.00 0.00 92 1012.9
20210730015734 83 188 0.0 0.0 0.00 0.00 0.00 91 1013.0
20210730015232 83 188 0.0 0.0 0.00 0.00 0.00 91 1012.9
20210730014730 83 188 0.0 0.0 0.00 0.00 0.00 91 1012.5
20210730014232 83 188 0.0 0.0 0.00 0.00 0.00 90 1012.3
20210730013716 83 188 0.0 0.0 0.00 0.00 0.00 90 1012.5
20210730013213 83 188 0.0 0.0 0.00 0.00 0.00 90 1012.5
20210730012710 83 188 0.0 0.0 0.00 0.00 0.00 90 1012.5
20210730012204 83 188 0.0 0.0 0.00 0.00 0.00 90 1012.6
20210730011700 84 188 0.0 0.0 0.00 0.00 0.00 89 1012.7
20210730011130 84 188 0.0 0.0 0.00 0.00 0.00 89 1012.9
20210730010631 84 188 0.0 0.0 0.00 0.00 0.00 89 1012.9
20210730010117 84 188 0.0 0.0 0.00 0.00 0.00 89 1012.9
20210730005621 84 188 0.0 0.0 0.00 0.00 0.00 88 1012.9
20210730005103 85 188 0.0 0.0 0.00 0.00 0.00 88 1012.8
20210730004604 85 188 0.0 0.0 0.00 0.00 0.00 88 1012.8
20210730004105 85 188 0.0 0.0 0.00 0.00 0.00 88 1012.7
20210730003550 85 188 0.0 0.0 0.00 0.00 0.00 87 1012.5
20210730003050 85 188 0.0 1.0 0.00 0.00 0.00 87 1012.5
20210730002539 86 188 0.0 1.0 0.00 0.00 0.00 87 1012.6
20210730002032 86 188 0.0 0.0 0.00 0.00 0.00 87 1012.6
20210730001532 86 188 0.0 0.0 0.00 0.00 0.00 87 1012.8
20210730001031 86 188 0.0 1.0 0.00 0.00 0.00 87 1013.0
20210730000532 86 188 0.0 1.0 0.00 0.00 0.00 87 1013.0
20210730000018 86 188 0.0 1.0 0.00 0.00 0.00 87 1013.1
20210729235514 86 188 0.0 0.0 0.00 0.00 0.00 87 1013.2
20210729235012 86 188 0.0 1.0 0.00 0.00 0.00 87 1013.1
20210729234511 86 188 0.0 1.0 0.00 0.00 0.00 86 1013.2
20210729234010 87 188 0.0 2.0 0.00 0.00 0.00 86 1013.2
20210729233511 87 188 0.0 2.0 0.00 0.00 0.00 87 1013.2
20210729233004 87 188 0.0 1.0 0.00 0.00 0.00 87 1013.1
20210729232503 87 188 0.0 1.0 0.00 0.00 0.00 88 1013.2
20210729232002 87 188 0.0 1.0 0.00 0.00 0.00 88 1013.1
20210729231503 88 188 0.0 2.0 0.00 0.00 0.00 88 1013.2
20210729231001 88 188 1.0 3.0 0.00 0.00 0.00 88 1013.2
20210729230449 88 188 1.0 3.0 0.00 0.00 0.00 88 1013.2
20210729225947 88 292 0.0 1.0 0.00 0.00 0.00 88 1013.1
20210729225448 88 294 0.0 1.0 0.00 0.00 0.00 87 1013.1
20210729224938 88 294 0.0 1.0 0.00 0.00 0.00 87 1013.1
20210729224438 88 294 1.0 2.0 0.00 0.00 0.00 87 1013.1
20210729223932 88 294 0.0 2.0 0.00 0.00 0.00 86 1013.1
20210729223433 88 294 0.0 2.0 0.00 0.00 0.00 86 1013.0
20210729222932 88 294 1.0 2.0 0.00 0.00 0.00 86 1013.0
20210729222432 88 296 1.0 3.0 0.00 0.00 0.00 86 1013.0
20210729221932 88 297 1.0 3.0 0.00 0.00 0.00 86 1012.9
20210729221431 88 277 1.0 2.0 0.00 0.00 0.00 87 1012.8
20210729220932 87 276 1.0 3.0 0.00 0.00 0.00 86 1012.8
20210729220428 87 288 1.0 3.0 0.00 0.00 0.00 86 1012.7
20210729215921 87 298 1.0 3.0 0.00 0.00 0.00 85 1012.7
20210729215418 88 277 1.0 3.0 0.00 0.00 0.00 85 1012.8
20210729214917 88 290 1.0 3.0 0.00 0.00 0.00 85 1012.8
20210729214415 88 293 1.0 3.0 0.00 0.00 0.00 85 1012.9
20210729213910 88 261 1.0 5.0 0.00 0.00 0.00 84 1013.0
20210729213409 89 294 2.0 5.0 0.00 0.00 0.00 83 1013.1
20210729212909 89 293 2.0 4.0 0.00 0.00 0.00 83 1013.2
20210729212408 89 285 2.0 5.0 0.00 0.00 0.00 82 1013.3
20210729211904 89 291 2.0 6.0 0.00 0.00 0.00 82 1013.3
20210729211400 89 300 2.0 7.0 0.00 0.00 0.00 82 1013.5
20210729210858 89 267 1.0 7.0 0.00 0.00 0.00 83 1013.6
20210729210613 89 279 1.0 3.0 0.00 0.00 0.00 84 1013.6
20210729210344 89 279 1.0 3.0 0.00 0.00 0.00 84 1013.6
20210729205833 89 299 1.0 3.0 0.00 0.00 0.00 84 1013.6
20210729205328 89 294 1.0 3.0 0.00 0.00 0.00 85 1013.6
20210729204828 88 288 1.0 3.0 0.00 0.00 0.00 85 1013.6
20210729204321 88 290 1.0 3.0 0.00 0.00 0.00 85 1013.6
20210729203814 87 297 1.0 3.0 0.00 0.00 0.00 85 1013.6
20210729203313 87 297 1.0 2.0 0.00 0.00 0.00 85 1013.7
20210729202814 87 296 1.0 2.0 0.00 0.00 0.00 85 1013.8
20210729202313 87 296 1.0 4.0 0.00 0.00 0.00 85 1013.6
20210729201805 87 296 1.0 5.0 0.00 0.00 0.00 84 1013.5
20210729201305 87 300 2.0 5.0 0.00 0.00 0.00 84 1013.5
20210729200804 87 298 2.0 4.0 0.00 0.00 0.00 84 1013.4
20210729200305 87 300 1.0 4.0 0.00 0.00 0.00 84 1013.3
20210729195758 87 294 1.0 4.0 0.00 0.00 0.00 85 1013.2
20210729195248 87 228 2.0 4.0 0.00 0.00 0.00 84 1013.0
20210729194743 87 263 2.0 5.0 0.00 0.00 0.00 85 1012.8
20210729194240 87 185 1.0 5.0 0.00 0.00 0.00 84 1012.8
20210729193742 87 265 1.0 3.0 0.00 0.00 0.00 85 1012.9
20210729193237 87 273 1.0 3.0 0.00 0.00 0.00 85 1013.0
20210729192739 86 269 2.0 5.0 0.00 0.00 0.00 85 1012.9
20210729192234 86 246 2.0 5.0 0.00 0.00 0.00 85 1013.0
20210729191735 86 236 2.0 4.0 0.00 0.00 0.00 85 1012.7
20210729191235 86 211 2.0 5.0 0.00 0.00 0.00 86 1012.9
20210729190734 86 203 2.0 5.0 0.00 0.00 0.00 85 1013.0
20210729190234 86 267 1.0 3.0 0.00 0.00 0.00 85 1013.1
20210729185731 86 240 1.0 4.0 0.00 0.00 0.00 84 1013.2
20210729185233 86 268 2.0 4.0 0.00 0.00 0.00 83 1013.3
20210729184731 86 248 2.0 5.0 0.00 0.00 0.00 83 1013.2
20210729184232 87 246 2.0 5.0 0.00 0.00 0.00 82 1013.2
20210729183732 87 252 2.0 4.0 0.00 0.00 0.00 82 1013.2
20210729183233 87 263 2.0 4.0 0.00 0.00 0.00 82 1013.3
20210729182733 87 233 2.0 5.0 0.00 0.00 0.00 82 1013.3
20210729182228 87 221 2.0 5.0 0.00 0.00 0.00 82 1013.4
20210729181728 88 280 2.0 4.0 0.00 0.00 0.00 81 1013.4
20210729181648 87 281 1.0 4.0 0.00 0.00 0.00 81 1012.3
20210729181228 88 241 2.0 5.0 0.00 0.00 0.00 81 1013.4
20210729180721 88 240 3.0 7.0 0.00 0.00 0.00 79 1013.5
20210729180220 88 302 3.0 9.0 0.00 0.00 0.00 79 1013.4
20210729175718 88 240 3.0 9.0 0.00 0.00 0.00 79 1013.5
20210729175216 89 249 3.0 5.0 0.00 0.00 0.00 80 1013.6
20210729174718 88 221 3.0 8.0 0.00 0.00 0.00 80 1013.6
20210729174551 88 264 2.0 8.0 0.00 0.00 0.00 81 1012.4
20210729174215 88 245 3.0 8.0 0.00 0.00 0.00 80 1013.5
20210729173714 87 258 2.0 5.0 0.00 0.00 0.00 82 1013.6
20210729173215 87 248 3.0 6.0 0.00 0.00 0.00 82 1013.8
20210729172714 87 246 2.0 6.0 0.00 0.00 0.00 81 1013.8
20210729172211 87 266 2.0 4.0 0.00 0.00 0.00 83 1013.9
20210729171713 87 246 2.0 4.0 0.00 0.00 0.00 83 1014.0
20210729171614 86 249 1.0 4.0 0.00 0.00 0.00 83 1013.0
20210729171209 87 281 2.0 4.0 0.00 0.00 0.00 82 1014.2
20210729170703 87 265 1.0 3.0 0.00 0.00 0.00 83 1014.3
20210729170205 86 246 2.0 4.0 0.00 0.00 0.00 83 1014.3
20210729165701 86 242 2.0 5.0 0.00 0.00 0.00 84 1014.3
20210729165154 86 272 2.0 5.0 0.00 0.00 0.00 83 1014.6
20210729164648 86 255 2.0 5.0 0.00 0.00 0.00 83 1014.6
20210729164558 86 255 1.0 5.0 0.00 0.00 0.00 83 1013.6
20210729164144 86 257 2.0 4.0 0.00 0.00 0.00 83 1014.7
20210729163639 86 290 2.0 5.0 0.00 0.00 0.00 85 1014.9
20210729163136 86 296 2.0 5.0 0.00 0.00 0.00 83 1015.0
20210729162635 85 249 1.0 4.0 0.00 0.00 0.00 86 1015.0
20210729162136 85 279 2.0 5.0 0.00 0.00 0.00 86 1015.0
20210729161632 85 224 1.0 5.0 0.00 0.00 0.00 87 1014.9
20210729161541 84 224 2.0 5.0 0.00 0.00 0.00 87 1014.0
20210729161134 84 269 1.0 3.0 0.00 0.00 0.00 88 1015.0
20210729160634 84 275 1.0 3.0 0.00 0.00 0.00 88 1015.0
20210729160133 84 267 2.0 3.0 0.00 0.00 0.00 88 1015.0
20210729155631 83 250 1.0 3.0 0.00 0.00 0.00 89 1015.1
20210729155133 83 264 1.0 3.0 0.00 0.00 0.00 89 1015.2
20210729154633 83 278 1.0 2.0 0.00 0.00 0.00 89 1015.3
20210729154630 82 278 1.0 2.0 0.00 0.00 0.00 90 1014.4
20210729154131 83 279 1.0 3.0 0.00 0.00 0.00 89 1015.3
20210729153633 82 264 1.0 3.0 0.00 0.00 0.00 90 1015.4
20210729153132 82 284 1.0 3.0 0.00 0.00 0.00 90 1015.5
20210729152633 82 259 1.0 3.0 0.00 0.00 0.00 90 1015.5
20210729152133 82 288 1.0 2.0 0.00 0.00 0.00 91 1015.6
20210729151632 81 288 1.0 3.0 0.00 0.00 0.00 91 1015.5
20210729151549 81 288 0.0 3.0 0.00 0.00 0.00 91 1014.7
20210729151134 81 295 1.0 3.0 0.00 0.00 0.00 92 1015.5
20210729150632 81 298 1.0 3.0 0.00 0.00 0.00 92 1015.7
20210729150131 80 213 0.0 1.0 0.00 0.00 0.00 93 1015.7
20210729145635 80 213 0.0 1.0 0.00 0.00 0.00 94 1015.8
20210729145133 80 212 0.0 2.0 0.00 0.00 0.00 94 1015.7
20210729144719 79 212 0.0 2.0 0.00 0.00 0.00 95 1014.9
20210729144633 80 212 1.0 2.0 0.00 0.00 0.00 95 1015.7
20210729144132 79 212 1.0 2.0 0.00 0.00 0.00 95 1015.6
20210729143631 79 212 1.0 2.0 0.00 0.00 0.00 96 1015.6
20210729143133 78 212 1.0 3.0 0.00 0.00 0.00 96 1015.8
20210729142632 78 212 1.0 3.0 0.00 0.00 0.00 96 1015.7
20210729142132 78 212 1.0 3.0 0.00 0.00 0.00 96 1015.7
20210729141633 78 212 1.0 3.0 0.00 0.00 0.00 97 1015.6
20210729141540 77 212 0.0 3.0 0.00 0.00 0.00 97 1014.9
20210729141122 78 212 1.0 3.0 0.00 0.00 0.00 97 1015.7
20210729140619 77 212 2.0 3.0 0.00 0.00 0.00 97 1015.7